Location: Newark
(48.8519°N, 2.3472°E)
Time: 11:34:24
(UTC+00:00)

ZACube-1 - Visible Passes

Search period start: 14 October 2019 00:00
Search period end: 24 October 2019 00:00
Orbit: 584 x 667 km, 97.6° (Epoch: 13 October)

Date Brightness Start Highest point End Pass type
(mag) Time Alt. Az. Time Alt. Az. Time Alt. Az.
14 Oct ? 05:02:37 10° NE 05:05:01 14° E 05:07:26 10° ESE visible
14 Oct ? 17:36:37 10° S 17:40:43 58° W 17:44:55 10° NNW visible
15 Oct ? 05:20:48 10° NE 05:24:14 21° E 05:27:41 10° SE visible
15 Oct ? 17:55:56 10° SSW 17:59:48 37° W 18:03:46 10° NNW visible
16 Oct ? 05:39:22 10° NNE 05:43:24 32° E 05:47:26 10° SSE visible
16 Oct ? 18:15:31 10° SSW 18:18:56 24° W 18:22:27 10° NW visible
17 Oct ? 18:35:30 10° SW 18:38:08 16° W 18:40:50 10° NW visible
18 Oct ? 18:56:37 10° W 18:57:24 10° W 18:58:11 10° WNW visible
19 Oct ? 05:01:21 10° NE 05:03:49 14° E 05:06:17 10° ESE visible
19 Oct ? 17:35:20 10° S 17:39:28 59° W 17:43:44 10° NNW visible
20 Oct ? 05:19:33 10° NE 05:23:02 21° E 05:26:32 10° SE visible
20 Oct ? 17:54:38 10° SSW 17:58:33 38° W 18:02:35 10° NNW visible
21 Oct ? 05:38:08 10° NNE 05:42:12 32° E 05:46:17 10° SSE visible
21 Oct ? 18:14:11 10° SSW 18:17:41 25° W 18:21:16 10° NW visible
22 Oct ? 18:34:09 10° SW 18:36:53 17° W 18:39:41 10° NW visible
23 Oct ? 17:14:58 10° SSE 17:19:11 87° E 17:23:35 10° NNW visible
23 Oct ? 18:55:03 10° W 18:56:09 11° W 18:57:14 10° WNW visible
